| time (UTC) | temp F | wind direction | speed MPH | gust MPH | rain 1hr in | rain 24hr in | rain mn in | humidity % | barometer mb |
| 20260503033033 | 78 | 0 | 0.0 | 0.0 | 0.00 | 0.00 | 0.00 | 24 | 1009.3 |
| 20260503032032 | 79 | 0 | 0.0 | 0.0 | 0.00 | 0.00 | 0.00 | 23 | 1009.3 |
| 20260503031033 | 79 | 286 | 1.0 | 4.0 | 0.00 | 0.00 | 0.00 | 23 | 1009.1 |
| 20260503030050 | 79 | 0 | 0.0 | 0.0 | 0.00 | 0.00 | 0.00 | 22 | 1009.0 |
| 20260503025033 | 79 | 0 | 0.0 | 0.0 | 0.00 | 0.00 | 0.00 | 22 | 1009.0 |
| 20260503024031 | 80 | 17 | 0.0 | 1.0 | 0.00 | 0.00 | 0.00 | 21 | 1009.0 |
| 20260503023033 | 80 | 0 | 0.0 | 0.0 | 0.00 | 0.00 | 0.00 | 21 | 1009.1 |
| 20260503022032 | 81 | 0 | 0.0 | 0.0 | 0.00 | 0.00 | 0.00 | 21 | 1009.1 |
| 20260503021032 | 81 | 17 | 0.0 | 1.0 | 0.00 | 0.00 | 0.00 | 20 | 1009.1 |
| 20260503020050 | 82 | 0 | 0.0 | 0.0 | 0.00 | 0.00 | 0.00 | 20 | 1009.2 |
| 20260503015033 | 82 | 0 | 0.0 | 0.0 | 0.00 | 0.00 | 0.00 | 19 | 1009.2 |
| 20260503014031 | 83 | 32 | 0.0 | 1.0 | 0.00 | 0.00 | 0.00 | 19 | 1009.0 |
| 20260503013030 | 83 | 10 | 0.0 | 3.0 | 0.00 | 0.00 | 0.00 | 19 | 1009.9 |
| 20260503012050 | 83 | 274 | 0.0 | 6.0 | 0.00 | 0.00 | 0.00 | 19 | 1009.9 |
| 20260503011033 | 83 | 0 | 0.0 | 0.0 | 0.00 | 0.00 | 0.00 | 18 | 1010.1 |
| 20260503010033 | 84 | 356 | 0.0 | 3.0 | 0.00 | 0.00 | 0.00 | 18 | 1009.8 |
| 20260503005033 | 84 | 32 | 1.0 | 4.0 | 0.00 | 0.00 | 0.00 | 17 | 1009.8 |
| 20260503004050 | 85 | 33 | 2.0 | 6.0 | 0.00 | 0.00 | 0.00 | 17 | 1009.7 |
| 20260503003030 | 86 | 346 | 1.0 | 7.0 | 0.00 | 0.00 | 0.00 | 16 | 1009.3 |
| 20260503002033 | 86 | 17 | 1.0 | 10.0 | 0.00 | 0.00 | 0.00 | 16 | 1009.3 |
| 20260503001050 | 87 | 43 | 1.0 | 6.0 | 0.00 | 0.00 | 0.00 | 16 | 1009.3 |
| 20260503000033 | 87 | 51 | 1.0 | 6.0 | 0.00 | 0.00 | 0.00 | 16 | 1009.4 |
| 20260502235032 | 87 | 358 | 1.0 | 7.0 | 0.00 | 0.00 | 0.00 | 15 | 1009.4 |
| 20260502234050 | 87 | 47 | 1.0 | 7.0 | 0.00 | 0.00 | 0.00 | 15 | 1009.4 |
| 20260502233032 | 87 | 59 | 4.0 | 10.0 | 0.00 | 0.00 | 0.00 | 15 | 1009.5 |
| 20260502232030 | 86 | 15 | 1.0 | 7.0 | 0.00 | 0.00 | 0.00 | 15 | 1009.5 |
| 20260502231033 | 86 | 26 | 3.0 | 12.0 | 0.00 | 0.00 | 0.00 | 15 | 1009.8 |
| 20260502230050 | 87 | 358 | 5.0 | 16.0 | 0.00 | 0.00 | 0.00 | 15 | 1009.8 |
| 20260502225032 | 87 | 43 | 1.0 | 10.0 | 0.00 | 0.00 | 0.00 | 15 | 1009.8 |
| 20260502224032 | 87 | 300 | 3.0 | 10.0 | 0.00 | 0.00 | 0.00 | 15 | 1009.8 |
| 20260502223032 | 87 | 295 | 3.0 | 7.0 | 0.00 | 0.00 | 0.00 | 15 | 1009.5 |
| 20260502222050 | 87 | 275 | 4.0 | 9.0 | 0.00 | 0.00 | 0.00 | 15 | 1009.5 |
| 20260502221031 | 87 | 84 | 2.0 | 7.0 | 0.00 | 0.00 | 0.00 | 15 | 1009.8 |
| 20260502220032 | 87 | 320 | 3.0 | 9.0 | 0.00 | 0.00 | 0.00 | 16 | 1009.9 |
| 20260502215033 | 87 | 48 | 4.0 | 9.0 | 0.00 | 0.00 | 0.00 | 16 | 1009.9 |
| 20260502214048 | 87 | 291 | 7.0 | 12.0 | 0.00 | 0.00 | 0.00 | 16 | 1010.2 |
| 20260502213033 | 86 | 78 | 4.0 | 9.0 | 0.00 | 0.00 | 0.00 | 17 | 1010.4 |
| 20260502212033 | 86 | 76 | 1.0 | 7.0 | 0.00 | 0.00 | 0.00 | 18 | 1010.4 |
| 20260502211033 | 85 | 271 | 3.0 | 9.0 | 0.00 | 0.00 | 0.00 | 18 | 1010.7 |
| 20260502210048 | 86 | 358 | 4.0 | 10.0 | 0.00 | 0.00 | 0.00 | 19 | 1010.9 |
| 20260502205031 | 86 | 60 | 3.0 | 10.0 | 0.00 | 0.00 | 0.00 | 18 | 1010.9 |
| 20260502204033 | 86 | 281 | 5.0 | 10.0 | 0.00 | 0.00 | 0.00 | 18 | 1011.1 |
| 20260502203033 | 86 | 76 | 3.0 | 10.0 | 0.00 | 0.00 | 0.00 | 18 | 1011.4 |
| 20260502202050 | 85 | 285 | 2.0 | 9.0 | 0.00 | 0.00 | 0.00 | 18 | 1011.4 |
| 20260502201032 | 85 | 334 | 2.0 | 7.0 | 0.00 | 0.00 | 0.00 | 19 | 1011.6 |
| 20260502200033 | 84 | 44 | 3.0 | 15.0 | 0.00 | 0.00 | 0.00 | 19 | 1011.8 |
| 20260502195031 | 84 | 20 | 2.0 | 10.0 | 0.00 | 0.00 | 0.00 | 19 | 1011.8 |
| 20260502194033 | 84 | 52 | 2.0 | 9.0 | 0.00 | 0.00 | 0.00 | 19 | 1011.9 |
| 20260502193033 | 84 | 43 | 3.0 | 9.0 | 0.00 | 0.00 | 0.00 | 19 | 1012.0 |
| 20260502192030 | 83 | 25 | 4.0 | 13.0 | 0.00 | 0.00 | 0.00 | 20 | 1012.0 |
| 20260502191032 | 83 | 9 | 3.0 | 10.0 | 0.00 | 0.00 | 0.00 | 20 | 1012.4 |
| 20260502190033 | 83 | 46 | 3.0 | 10.0 | 0.00 | 0.00 | 0.00 | 20 | 1012.4 |
| 20260502185048 | 83 | 45 | 5.0 | 15.0 | 0.00 | 0.00 | 0.00 | 22 | 1012.4 |
| 20260502184050 | 82 | 30 | 4.0 | 10.0 | 0.00 | 0.00 | 0.00 | 23 | 1012.9 |
| 20260502183033 | 82 | 64 | 3.0 | 13.0 | 0.00 | 0.00 | 0.00 | 23 | 1013.0 |
| 20260502182032 | 81 | 82 | 6.0 | 13.0 | 0.00 | 0.00 | 0.00 | 24 | 1013.0 |
| 20260502181033 | 81 | 29 | 5.0 | 12.0 | 0.00 | 0.00 | 0.00 | 24 | 1013.1 |
| 20260502164050 | 78 | 1 | 1.0 | 7.0 | 0.00 | 0.00 | 0.00 | 25 | 1013.2 |
| 20260502163030 | 77 | 48 | 1.0 | 4.0 | 0.00 | 0.00 | 0.00 | 24 | 1013.2 |
| 20260502162032 | 76 | 302 | 1.0 | 7.0 | 0.00 | 0.00 | 0.00 | 24 | 1013.2 |
| 20260502161032 | 75 | 273 | 0.0 | 3.0 | 0.00 | 0.00 | 0.00 | 24 | 1013.4 |
| 20260502152105 | 70 | 69 | 1.0 | 6.0 | 0.00 | 0.00 | 0.00 | 29 | 1013.0 |
| 20260502151032 | 69 | 303 | 1.0 | 4.0 | 0.00 | 0.00 | 0.00 | 30 | 1013.0 |
| 20260502140107 | 63 | 271 | 0.0 | 1.0 | 0.00 | 0.00 | 0.00 | 36 | 1012.6 |
| 20260502122033 | 62 | 85 | 0.0 | 3.0 | 0.00 | 0.00 | 0.00 | 34 | 1011.4 |
| 20260502121050 | 63 | 70 | 0.0 | 1.0 | 0.00 | 0.00 | 0.00 | 33 | 1011.2 |
| 20260502115032 | 63 | 0 | 0.0 | 0.0 | 0.00 | 0.00 | 0.00 | 33 | 1011.2 |
| 20260502114050 | 63 | 63 | 0.0 | 1.0 | 0.00 | 0.00 | 0.00 | 33 | 1011.2 |
| 20260502113033 | 63 | 346 | 0.0 | 1.0 | 0.00 | 0.00 | 0.00 | 32 | 1011.2 |
| 20260502112032 | 63 | 348 | 0.0 | 1.0 | 0.00 | 0.00 | 0.00 | 32 | 1011.2 |
| 20260502111033 | 64 | 350 | 0.0 | 3.0 | 0.00 | 0.00 | 0.00 | 30 | 1011.2 |
| 20260502110050 | 66 | 330 | 0.0 | 1.0 | 0.00 | 0.00 | 0.00 | 28 | 1011.2 |
| 20260502105031 | 67 | 26 | 0.0 | 3.0 | 0.00 | 0.00 | 0.00 | 28 | 1010.8 |
| 20260502104033 | 67 | 26 | 3.0 | 7.0 | 0.00 | 0.00 | 0.00 | 28 | 1010.8 |
| 20260502103033 | 67 | 27 | 5.0 | 10.0 | 0.00 | 0.00 | 0.00 | 28 | 1010.8 |
| 20260502102050 | 67 | 27 | 2.0 | 7.0 | 0.00 | 0.00 | 0.00 | 28 | 1010.7 |
| 20260502101033 | 67 | 49 | 1.0 | 6.0 | 0.00 | 0.00 | 0.00 | 28 | 1010.8 |
| 20260502091033 | 66 | 64 | 0.0 | 1.0 | 0.00 | 0.00 | 0.00 | 28 | 1011.0 |
| 20260502071033 | 68 | 69 | 0.0 | 4.0 | 0.00 | 0.00 | 0.00 | 28 | 1011.6 |
| 20260502070033 | 68 | 0 | 0.0 | 0.0 | 0.00 | 0.00 | 0.00 | 27 | 1011.6 |
| 20260502065032 | 68 | 0 | 0.0 | 0.0 | 0.00 | 0.00 | 0.00 | 27 | 1011.6 |
| 20260502064033 | 68 | 0 | 0.0 | 0.0 | 0.00 | 0.00 | 0.00 | 27 | 1011.4 |
| 20260502063033 | 68 | 82 | 0.0 | 1.0 | 0.00 | 0.00 | 0.00 | 27 | 1011.3 |
| 20260502062048 | 69 | 82 | 0.0 | 1.0 | 0.00 | 0.00 | 0.00 | 27 | 1011.3 |
| 20260502061033 | 69 | 47 | 0.0 | 1.0 | 0.00 | 0.00 | 0.00 | 27 | 1011.3 |
| 20260502060032 | 69 | 56 | 0.0 | 3.0 | 0.00 | 0.00 | 0.00 | 27 | 1011.3 |
| 20260502055032 | 70 | 72 | 0.0 | 1.0 | 0.00 | 0.00 | 0.00 | 27 | 1011.2 |
| 20260502054033 | 70 | 0 | 0.0 | 0.0 | 0.00 | 0.00 | 0.00 | 26 | 1010.9 |
| 20260502053033 | 70 | 72 | 0.0 | 1.0 | 0.00 | 0.00 | 0.00 | 27 | 1010.9 |
| 20260502052032 | 70 | 0 | 0.0 | 0.0 | 0.00 | 0.00 | 0.00 | 27 | 1011.1 |
| 20260502051030 | 70 | 0 | 0.0 | 0.0 | 0.00 | 0.00 | 0.00 | 26 | 1011.1 |
| 20260502050048 | 70 | 76 | 0.0 | 4.0 | 0.00 | 0.00 | 0.00 | 26 | 1011.0 |
| 20260502045033 | 70 | 284 | 0.0 | 1.0 | 0.00 | 0.00 | 0.00 | 26 | 1011.0 |
| 20260502044033 | 70 | 294 | 0.0 | 1.0 | 0.00 | 0.00 | 0.00 | 26 | 1010.9 |
| 20260502043032 | 71 | 287 | 0.0 | 1.0 | 0.00 | 0.00 | 0.00 | 26 | 1010.9 |
| 20260502042032 | 72 | 30 | 0.0 | 1.0 | 0.00 | 0.00 | 0.00 | 26 | 1010.8 |
| 20260502041032 | 73 | 0 | 0.0 | 0.0 | 0.00 | 0.00 | 0.00 | 25 | 1010.3 |
| 20260502040031 | 73 | 349 | 0.0 | 1.0 | 0.00 | 0.00 | 0.00 | 25 | 1010.1 |
| 20260502035033 | 74 | 0 | 0.0 | 0.0 | 0.00 | 0.00 | 0.00 | 24 | 1010.1 |
| 20260502034032 | 75 | 0 | 0.0 | 0.0 | 0.00 | 0.00 | 0.00 | 24 | 1009.9 |